SCP
0 0 0 0 0 0 0 0 0 0 0 0 0 0 0 0 0 0 0 0 0 0 0 0 0 0 0 0 0 0 0 0 0 0 0 0 0 0
0 0 0 0 0 0 0 0 0 0 0 0 0 0 0 0 0 0 0 0 0 0 0 0 0 0 0 0 0 0 0 0 0 0 0 0 0 0
0 0 0 0 0 0 0 0 0 0 0 0 0 0 0 0 0 0 0 0 0 0 0 0 0 0 0 0 0 0 0 0 0 0 0 0 0 0
0 0 0 0 0 0 0 0 0 0 0 0 0 0 0 0 0 0 0 0 0 0 0 0 0 0 0 0 0 0 0 0 0 0 0 0 0 0
0 0 0 0 0 0 0 0 0 0 0 0 0 0 0 0 0 0 0 0 0 0 0 0 0 0 0 0 0 0 0 0 0 0 0 0 0 0
0 0 0 0 0 0 0 0 0 0 0 0 0 0 0 0 0 0 0 0 0 0 0 0 0 0 0 0 0 0 0 0 0 0 0 0 0 0
0 0 0 0 0 0 0 0 0 0 0 0 0 0 0 0 0 0 0 0 0 0 0 0 0 0 0 0 0 0 0 0 0 0 0 0 0 0
0 0 0 0 0 0 0 0 0 0 0 0 0 0 0 0 0 0 0 0 0 0 0 0 0 0 0 0 0 0 0 0 0 0 0 0 0 0
0 0 0 0 0 0 0 0 0 0 0 0 0 0 0 0 0 0 0 0 0 0 0 0 0 0 0 0 0 0 0 0 0 0 0 0 0 0
0 0 0 0 0 0 0 0 0 0 0 0 0 0 0 0 0 0 0 0 0 0 0 0 0 0 0 0 0 0 0 0 0 0 0 0 0 0
0 0 0 0 0 0 0 0 0 0 0 0 0 0 0 0 0 0 0 0 0 0 0 0 0 0 0 0 0 0 0 0 0 0 0 0 0 0
0 0 0 0 0 0 0 0 0 0 0 0 0 0 0 0 0 0 0 0 0 0 0 0 0 0 0 0 0 0 0 0 0 0 0 0 0 0
0 0 0 0 0 0 0 0 0 0 0 0 0 0 0 0 0 0 0 0 0 0 0 0 0 0 0 0 0 0 0 0 0 0 0 0 0 0
0 0 0 0 0 0 0 0 0 0 0 0 0 0 0 0 0 0 0 0 0 0 0 0 0 0 0 0 0 0 0 0 0 0 0 0 0 0
0 0 0 0 0 0 0 0 0 0 0 0 0 0 0 0 0 0 0 0 0 0 0 0 0 0 0 0 0 0 0 0 0 0 0 0 0 0
0 0 0 0 0 0 0 0 0 0 0 0 0 0 0 0 0 0 0 0 0 0 0 0 0 0 0 0 0 0 0 0 0 0 0 0 0 0
0 0 0 0 0 0 0 0 0 0 0 0 0 0 0 0 0 0 0 0 0 0 0 0 0 0 0 0 0 0 0 0 0 0 0 0 0 0
0 0 0 0 0 0 0 0 0 0 0 0 0 0 0 0 0 0 0 0 0 0 0 0 0 0 0 0 0 0 0 0 0 0 0 0 0 0
0 0 0 0 0 0 0 0 0 0 0 0 0 0 0 0 0 0 0 0 0 0 0 0 0 0 0 0 0 0 0 0 0 0 0 0 0 0
0 0 0 0 0 0 0 0 0 0 0 0 0 0 0 0 0 0 0 0 0 0 0 0 0 0 0 0 0 0 0 0 0 0 0 0 0 0
0 0 0 0 0 0 0 0 0 0 0 0 0 0 0 0 0 0 0 0 0 0 0 0 0 0 0 0 0 0 0 0 0 0 0 0 0 0
0 0 0 0 0 0 0 0 0 0 0 0 0 0 0 0 0 0 0 0 0 0 0 0 0 0 0 0 0 0 0 0 0 0 0 0 0 0
0 0 0 0 0 0 0 0 0 0 0 0 0 0 0 0 0 0 0 0 0 0 0 0 0 0 0 0 0 0 0 0 0 0 0 0 0 0
Wind_Speed
1 1 1 1 0 1 1 3 3 1 2 2 1 1 1 2 3 2 2 5 7 7 7 7 7 7 7 6 6 6 6 6 6 5 6 6 7 7
1 1 1 1 1 0 1 1 2 3 2 2 2 2 2 2 3 3 3 5 7 7 7 7 7 8 8 7 7 7 7 7 7 7 6 6 6 7
1 1 1 1 1 1 0 1 1 2 2 2 1 1 0 1 1 2 2 3 4 7 7 8 8 8 8 8 8 8 8 8 8 8 7 7 7 7
2 1 2 1 1 1 1 1 1 2 2 2 2 1 1 2 1 2 2 3 3 6 7 8 8 8 8 9 9 8 9 9 8 8 8 7 8 8
1 1 2 1 1 1 1 1 1 1 1 2 2 2 1 1 0 2 2 2 3 4 6 8 8 8 8 8 8 8 9 9 9 9 8 8 8 8
1 1 1 2 2 2 1 1 1 1 1 1 2 2 1 1 0 1 2 2 3 2 3 4 6 7 8 9 9 9 9 9 9 9 9 9 9 8
1 2 2 2 2 2 2 2 2 1 1 1 2 1 1 1 1 1 2 2 3 2 1 2 2 3 4 7 9 10 10 10 10 10 9 9 8 8
2 3 3 2 3 3 3 3 3 3 3 2 2 3 3 3 2 2 1 1 3 2 1 3 2 4 4 4 7 9 10 10 10 9 9 9 9 8
2 2 2 1 2 2 3 3 3 4 5 4 4 4 4 4 3 3 3 3 4 3 1 3 2 4 4 5 8 9 9 9 9 9 9 9 9 9
2 2 2 2 2 2 2 2 3 3 4 4 5 5 5 4 5 4 5 4 4 3 3 3 3 4 4 3 7 8 9 9 9 9 9 9 9 9
2 1 2 2 3 2 1 2 3 4 5 5 5 6 7 7 4 2 2 1 3 3 2 3 2 2 3 3 5 7 9 9 8 8 8 8 8 7
2 2 2 2 3 2 2 2 3 5 3 3 4 5 4 5 5 4 4 3 2 3 3 2 2 1 2 3 2 2 4 6 8 8 9 8 7 4
1 2 2 3 3 3 2 2 5 4 2 2 3 3 3 2 3 3 3 3 3 4 3 2 2 1 2 3 2 2 2 2 3 4 7 8 8 7
2 2 2 3 3 4 2 3 4 3 1 1 2 2 2 3 3 3 3 4 4 5 4 2 2 2 2 2 3 2 2 2 2 3 3 4 6 8
1 2 3 3 3 3 4 4 3 1 0 1 2 3 3 4 3 2 3 3 3 4 3 3 3 3 3 3 3 2 2 2 3 3 3 3 4 4
1 3 3 3 2 3 3 3 1 1 1 2 2 3 3 2 2 2 2 2 2 3 4 3 4 4 3 3 3 3 2 2 3 3 3 3 3 4
0 1 1 2 2 2 2 2 2 1 1 2 2 2 3 3 3 2 2 1 2 3 3 3 2 3 4 3 2 3 3 3 3 3 3 3 4 5
2 1 0 1 1 1 2 2 2 2 2 2 2 2 2 2 3 2 1 1 2 3 3 2 2 2 2 2 3 3 3 3 2 2 3 3 4 4
1 1 1 1 1 1 1 1 2 2 1 1 1 1 2 2 2 2 2 2 2 3 3 2 1 1 2 4 4 2 2 2 2 2 3 3 4 4
0 1 1 1 1 1 1 1 1 2 1 1 1 1 1 1 2 2 2 2 2 3 3 2 2 2 4 5 3 3 3 2 2 3 2 1 1 1
1 1 1 1 1 1 1 1 1 1 1 1 1 1 2 2 2 2 2 3 3 2 3 4 5 5 3 1 1 2 2 3 3 3 2 1 1 1
1 1 1 1 1 1 1 1 1 1 1 1 2 2 2 2 2 3 3 3 3 3 4 4 3 2 1 2 3 3 3 2 2 2 1 2 3 4
1 1 1 1 1 1 1 2 2 2 2 2 2 2 2 3 3 3 3 3 3 3 3 3 2 1 2 3 3 3 2 2 1 1 2 4 3 3
Wind_Direction
223 234 233 262 238 212 171 164 163 206 274 270 275 271 235 202 208 197 206 210 211 213 211 210 212 213 211 210 213 213 217 220 224 228 230 232 238 243
221 209 263 266 243 211 184 180 169 175 224 254 244 246 229 216 214 204 212 210 211 215 215 215 217 219 218 218 219 219 220 222 223 224 229 232 236 242
275 228 251 253 248 248 196 175 197 172 213 270 264 272 228 241 231 223 219 220 224 222 222 219 219 222 221 223 224 224 224 226 227 229 230 233 236 239
270 268 272 273 264 243 208 221 223 202 192 249 278 262 239 237 223 225 233 226 231 233 226 223 224 226 227 228 228 229 229 228 230 232 235 237 238 238
239 235 254 253 263 261 249 251 258 252 195 212 257 253 265 273 287 272 258 263 249 242 227 229 231 233 236 235 233 233 233 231 231 233 235 236 238 237
229 221 234 226 230 234 240 248 250 265 236 229 258 262 264 281 121 273 290 274 260 252 243 234 236 238 241 241 239 237 237 235 231 232 234 234 234 234
256 245 240 233 226 221 222 216 209 213 217 233 259 272 267 261 244 245 257 274 265 241 241 250 244 247 244 245 244 241 238 237 234 231 231 231 231 231
251 259 252 238 247 252 249 230 203 200 205 214 235 237 245 235 234 235 240 272 281 263 211 259 223 244 246 237 242 237 234 234 233 230 227 226 227 230
246 256 268 255 233 256 264 267 261 243 211 200 218 231 234 228 219 237 232 232 245 246 195 261 245 247 249 248 244 240 235 233 229 227 226 224 223 225
246 226 231 265 275 248 246 278 280 271 251 225 221 233 235 226 212 218 227 244 263 259 191 236 251 248 256 249 246 238 235 232 227 227 228 226 223 223
272 255 244 250 279 258 237 271 288 289 277 261 253 257 262 252 230 202 226 237 273 273 219 208 247 260 266 259 253 240 233 230 228 228 229 226 220 217
295 287 263 259 276 261 221 243 271 278 289 298 291 291 279 273 254 215 207 211 239 266 243 199 232 222 284 274 260 251 238 238 234 234 233 229 219 207
267 283 285 299 296 293 266 237 250 262 276 276 281 284 286 283 273 244 215 202 212 241 243 190 211 207 224 274 288 257 227 229 224 234 233 230 219 203
252 277 293 315 319 309 290 281 280 280 275 281 286 285 277 276 272 259 238 232 226 232 237 193 200 204 212 246 268 277 258 239 217 227 228 226 223 220
275 292 310 319 326 322 308 304 305 287 281 281 274 272 265 265 273 278 271 257 260 261 253 217 212 213 200 217 240 247 260 254 220 222 226 218 211 201
301 317 326 334 334 320 318 318 309 263 222 253 273 282 293 300 292 278 271 276 279 286 278 249 225 206 218 229 219 238 235 238 227 222 219 222 213 206
242 17 11 0 350 346 329 322 324 337 314 295 291 296 300 302 296 296 284 272 259 279 294 299 271 239 224 213 230 240 242 249 235 214 206 220 221 213
97 80 307 309 311 305 304 315 315 302 293 293 298 299 307 309 311 320 322 304 288 282 280 283 310 334 333 292 233 235 244 247 244 214 202 215 237 225
98 242 258 266 276 291 302 306 303 298 293 308 315 316 321 318 317 321 330 323 302 291 288 281 260 233 264 276 281 235 227 252 244 223 218 219 233 233
236 271 286 296 300 309 319 316 319 335 338 327 317 321 314 308 311 312 305 292 287 290 296 294 269 245 240 247 254 273 257 237 229 229 234 243 267 285
317 317 302 301 302 308 312 310 311 316 316 308 304 302 295 294 297 294 289 291 284 287 287 282 272 271 262 248 269 282 285 273 233 221 207 203 239 241
317 326 313 301 297 305 307 303 298 290 289 290 296 298 295 286 282 284 281 281 277 272 274 279 291 308 285 247 254 260 276 300 328 337 239 195 191 202
272 286 296 303 300 290 284 287 290 291 284 284 286 288 294 295 289 280 278 277 281 284 286 289 300 301 271 254 253 259 260 261 273 350 332 330 297 252